Time,TemperatureF,DewpointF,PressureIn,WindDirection,WindDirectionDegrees,WindSpeedMPH,WindSpeedGustMPH,Humidity,HourlyPrecipIn,Conditions,Clouds,dailyrainin,SolarRadiationWatts/m^2,SoftwareType,DateUTC
2013-08-14 00:01:00,81.0,75.3,30.04,SSE,163,0.0,0.0,83,0.00,,FEW021,0.00,0.00,VWS V14.01,2013-08-14 04:01:00,
2013-08-14 00:06:00,80.9,75.3,30.04,SSE,163,0.0,1.0,83,0.00,,FEW021,0.00,0.00,VWS V14.01,2013-08-14 04:06:00,
2013-08-14 00:11:00,80.7,75.4,30.04,SSE,163,0.0,0.0,84,0.00,,FEW021,0.00,0.00,VWS V14.01,2013-08-14 04:11:00,
2013-08-14 00:16:00,80.7,75.4,30.04,SSE,163,0.0,0.0,84,0.00,,FEW021,0.00,0.00,VWS V14.01,2013-08-14 04:16:00,
2013-08-14 00:21:00,80.8,75.5,30.04,SSE,163,0.0,0.0,84,0.00,,FEW021,0.00,0.00,VWS V14.01,2013-08-14 04:21:00,
2013-08-14 00:26:00,80.8,75.5,30.04,SSE,163,0.0,0.0,84,0.00,,FEW021,0.00,0.00,VWS V14.01,2013-08-14 04:26:00,
2013-08-14 00:31:00,80.7,75.4,30.04,SSE,163,0.0,0.0,84,0.00,,FEW021,0.00,0.00,VWS V14.01,2013-08-14 04:31:00,
2013-08-14 00:36:00,80.5,75.2,30.03,SSE,163,0.0,0.0,84,0.00,,FEW021,0.00,0.00,VWS V14.01,2013-08-14 04:36:00,
2013-08-14 00:41:00,80.4,75.1,30.03,SSE,163,0.0,1.0,84,0.00,,FEW021,0.00,0.00,VWS V14.01,2013-08-14 04:41:00,
2013-08-14 00:46:00,80.4,75.1,30.03,SSE,163,1.0,2.0,84,0.00,,FEW021,0.00,0.00,VWS V14.01,2013-08-14 04:46:00,
2013-08-14 00:51:00,80.4,75.1,30.03,SSE,163,0.0,0.0,84,0.00,,FEW021,0.00,0.00,VWS V14.01,2013-08-14 04:51:00,
2013-08-14 00:56:00,80.4,75.1,30.03,SSE,163,0.0,0.0,84,0.00,,FEW021,0.00,0.00,VWS V14.01,2013-08-14 04:56:00,
2013-08-14 01:01:00,80.4,75.1,30.03,SSE,163,0.0,0.0,84,0.00,,FEW021,0.00,0.00,VWS V14.01,2013-08-14 05:01:00,
2013-08-14 01:06:00,80.3,75.0,30.02,SSE,163,0.0,0.0,84,0.00,,FEW021,0.00,0.00,VWS V14.01,2013-08-14 05:06:00,
2013-08-14 01:11:00,80.3,75.0,30.02,SSE,163,1.0,1.0,84,0.00,,FEW021,0.00,0.00,VWS V14.01,2013-08-14 05:11:00,
2013-08-14 01:16:00,80.2,75.3,30.02,SSE,163,0.0,0.0,85,0.00,,FEW021,0.00,0.00,VWS V14.01,2013-08-14 05:16:00,
2013-08-14 01:21:00,80.2,75.3,30.02,SSE,163,0.0,0.0,85,0.00,,FEW021,0.00,0.00,VWS V14.01,2013-08-14 05:21:00,
2013-08-14 01:26:00,80.1,75.2,30.02,SSE,163,0.0,0.0,85,0.00,,FEW021,0.00,0.00,VWS V14.01,2013-08-14 05:26:00,
2013-08-14 01:31:00,80.0,75.1,30.01,SSE,163,0.0,0.0,85,0.00,,FEW021,0.00,0.00,VWS V14.01,2013-08-14 05:31:00,
2013-08-14 01:36:00,79.9,75.0,30.01,SSE,163,0.0,0.0,85,0.00,,FEW021,0.00,0.00,VWS V14.01,2013-08-14 05:36:00,
2013-08-14 01:41:00,79.9,75.3,30.01,SSE,159,2.0,4.0,86,0.00,,FEW021,0.00,0.00,VWS V14.01,2013-08-14 05:41:00,
2013-08-14 01:46:00,80.1,75.5,30.01,SE,133,1.0,3.0,86,0.00,,FEW021,0.00,0.00,VWS V14.01,2013-08-14 05:46:00,
2013-08-14 01:51:00,80.2,75.6,30.01,SE,141,0.0,0.0,86,0.00,,FEW021,0.00,0.00,VWS V14.01,2013-08-14 05:51:00,
2013-08-14 01:56:00,80.2,75.6,30.01,SE,141,0.0,1.0,86,0.00,,FEW021,0.00,0.00,VWS V14.01,2013-08-14 05:56:00,
2013-08-14 02:01:00,80.3,75.7,30.01,SE,141,0.0,1.0,86,0.00,,FEW021,0.00,0.00,VWS V14.01,2013-08-14 06:01:00,
2013-08-14 02:06:00,80.2,75.6,30.00,SE,141,0.0,0.0,86,0.00,,FEW021,0.00,0.00,VWS V14.01,2013-08-14 06:06:00,
2013-08-14 02:11:00,80.1,75.5,30.01,SE,141,0.0,0.0,86,0.00,,FEW021,0.00,0.00,VWS V14.01,2013-08-14 06:11:00,
2013-08-14 02:16:00,79.9,75.3,30.01,SE,140,0.0,0.0,86,0.00,,FEW021,0.00,0.00,VWS V14.01,2013-08-14 06:16:00,
2013-08-14 02:21:00,79.7,75.2,30.00,SE,141,0.0,0.0,86,0.00,,FEW021,0.00,0.00,VWS V14.01,2013-08-14 06:21:00,
2013-08-14 02:26:00,79.6,75.1,30.00,SE,140,0.0,0.0,86,0.00,,FEW021,0.00,0.00,VWS V14.01,2013-08-14 06:26:00,
2013-08-14 02:31:00,79.5,74.9,30.00,SE,140,0.0,0.0,86,0.00,,FEW021,0.00,0.00,VWS V14.01,2013-08-14 06:31:00,
2013-08-14 02:36:00,79.4,74.8,30.00,SE,140,0.0,0.0,86,0.00,,FEW021,0.00,0.00,VWS V14.01,2013-08-14 06:36:00,
2013-08-14 02:41:00,79.3,75.1,30.00,SE,141,0.0,0.0,87,0.00,,FEW021,0.00,0.00,VWS V14.01,2013-08-14 06:41:00,
2013-08-14 02:46:00,79.2,75.0,29.99,SE,140,0.0,0.0,87,0.00,,FEW021,0.00,0.00,VWS V14.01,2013-08-14 06:46:00,
2013-08-14 02:51:00,79.1,74.9,29.99,SE,141,0.0,0.0,87,0.00,,FEW021,0.00,0.00,VWS V14.01,2013-08-14 06:51:00,
2013-08-14 02:56:00,79.0,74.8,30.00,SE,141,0.0,0.0,87,0.00,,FEW021,0.00,0.00,VWS V14.01,2013-08-14 06:56:00,
2013-08-14 03:01:00,78.9,75.1,29.99,SE,141,0.0,0.0,88,0.00,,FEW021,0.00,0.00,VWS V14.01,2013-08-14 07:01:00,
2013-08-14 03:06:00,78.9,75.1,29.99,SE,141,0.0,0.0,88,0.00,,FEW021,0.00,0.00,VWS V14.01,2013-08-14 07:06:00,
2013-08-14 03:11:00,78.8,74.9,29.99,SE,141,0.0,0.0,88,0.00,,FEW021,0.00,0.00,VWS V14.01,2013-08-14 07:11:00,
2013-08-14 03:16:00,78.7,74.8,29.99,SE,141,0.0,0.0,88,0.00,,FEW021,0.00,0.00,VWS V14.01,2013-08-14 07:16:00,
2013-08-14 03:21:00,78.6,74.8,29.99,SE,141,0.0,0.0,88,0.00,,FEW021,0.00,0.00,VWS V14.01,2013-08-14 07:21:00,
2013-08-14 03:26:00,78.5,74.7,29.99,SE,141,0.0,0.0,88,0.00,,FEW021,0.00,0.00,VWS V14.01,2013-08-14 07:26:00,
2013-08-14 03:31:00,78.4,74.6,29.99,SE,141,0.0,0.0,88,0.00,,FEW021,0.00,0.00,VWS V14.01,2013-08-14 07:31:00,
2013-08-14 03:36:00,78.3,74.8,29.99,SE,141,0.0,0.0,89,0.00,,FEW021,0.00,0.00,VWS V14.01,2013-08-14 07:36:00,
2013-08-14 03:41:00,78.2,74.7,29.99,SE,141,0.0,0.0,89,0.00,,FEW021,0.00,0.00,VWS V14.01,2013-08-14 07:41:00,
2013-08-14 03:46:00,78.1,74.6,29.98,SE,141,0.0,0.0,89,0.00,,FEW021,0.00,0.00,VWS V14.01,2013-08-14 07:46:00,
2013-08-14 03:51:00,78.0,74.5,29.98,SE,141,0.0,0.0,89,0.00,,FEW021,0.00,0.00,VWS V14.01,2013-08-14 07:51:00,
2013-08-14 03:56:00,77.9,74.4,29.98,SE,141,0.0,0.0,89,0.00,,FEW021,0.00,0.00,VWS V14.01,2013-08-14 07:56:00,
2013-08-14 04:01:00,78.0,74.8,29.99,SE,140,0.0,0.0,90,0.00,,FEW021,0.00,0.00,VWS V14.01,2013-08-14 08:01:00,
2013-08-14 04:06:00,77.9,74.7,29.98,SE,140,0.0,0.0,90,0.00,,FEW021,0.00,0.00,VWS V14.01,2013-08-14 08:06:00,
2013-08-14 04:11:00,77.8,74.6,29.98,SE,140,0.0,0.0,90,0.00,,FEW021,0.00,0.00,VWS V14.01,2013-08-14 08:11:00,
2013-08-14 04:16:00,77.8,74.6,29.98,SE,141,0.0,0.0,90,0.00,,FEW021,0.00,0.00,VWS V14.01,2013-08-14 08:16:00,
2013-08-14 04:21:00,77.7,74.5,29.98,SE,141,0.0,0.0,90,0.00,,FEW021,0.00,0.00,VWS V14.01,2013-08-14 08:21:00,
2013-08-14 04:26:00,77.7,74.5,29.98,SE,141,0.0,0.0,90,0.00,,FEW021,0.00,0.00,VWS V14.01,2013-08-14 08:26:00,
2013-08-14 04:31:00,77.6,74.8,29.98,SE,141,0.0,0.0,91,0.00,,FEW021,0.00,0.00,VWS V14.01,2013-08-14 08:31:00,
2013-08-14 04:36:00,77.6,74.8,29.98,SE,140,0.0,0.0,91,0.00,,FEW021,0.00,0.00,VWS V14.01,2013-08-14 08:36:00,
2013-08-14 04:41:00,77.6,74.8,29.98,SE,140,0.0,0.0,91,0.00,,FEW021,0.00,0.00,VWS V14.01,2013-08-14 08:41:00,
2013-08-14 04:46:00,77.5,74.7,29.98,SE,141,0.0,0.0,91,0.00,,FEW021,0.00,0.00,VWS V14.01,2013-08-14 08:46:00,
2013-08-14 04:51:00,77.4,74.6,29.98,SE,141,0.0,0.0,91,0.00,,FEW021,0.00,0.00,VWS V14.01,2013-08-14 08:51:00,
2013-08-14 04:56:00,77.4,74.6,29.98,SE,141,0.0,0.0,91,0.00,,FEW021,0.00,0.00,VWS V14.01,2013-08-14 08:56:00,
2013-08-14 05:01:00,77.3,74.5,29.98,SE,140,0.0,0.0,91,0.00,,FEW021,0.00,0.00,VWS V14.01,2013-08-14 09:01:00,
2013-08-14 05:06:00,77.2,74.4,29.98,SE,140,0.0,0.0,91,0.00,,FEW021,0.00,0.00,VWS V14.01,2013-08-14 09:06:00,
2013-08-14 05:11:00,77.2,74.4,29.98,SE,141,0.0,0.0,91,0.00,,FEW021,0.00,0.00,VWS V14.01,2013-08-14 09:11:00,
2013-08-14 05:16:00,77.2,74.7,29.98,SE,141,0.0,0.0,92,0.00,,FEW021,0.00,0.00,VWS V14.01,2013-08-14 09:16:00,
2013-08-14 05:21:00,77.1,74.6,29.98,SE,140,0.0,0.0,92,0.00,,FEW021,0.00,0.00,VWS V14.01,2013-08-14 09:21:00,
2013-08-14 05:26:00,77.1,74.6,29.98,SE,140,0.0,0.0,92,0.00,,FEW021,0.00,0.00,VWS V14.01,2013-08-14 09:26:00,
2013-08-14 05:31:00,77.1,74.6,29.98,SE,141,0.0,0.0,92,0.00,,FEW021,0.00,0.00,VWS V14.01,2013-08-14 09:31:00,
2013-08-14 05:36:00,77.1,74.6,29.98,SE,140,0.0,0.0,92,0.00,,FEW021,0.00,0.00,VWS V14.01,2013-08-14 09:36:00,
2013-08-14 05:41:00,77.0,74.5,29.98,SE,140,0.0,0.0,92,0.00,,FEW021,0.00,0.00,VWS V14.01,2013-08-14 09:41:00,
2013-08-14 05:46:00,76.9,74.4,29.98,SE,141,0.0,0.0,92,0.00,,FEW021,0.00,0.00,VWS V14.01,2013-08-14 09:46:00,
2013-08-14 05:51:00,76.8,74.3,29.98,SE,141,0.0,0.0,92,0.00,,FEW021,0.00,0.00,VWS V14.01,2013-08-14 09:51:00,
2013-08-14 05:56:00,76.8,74.3,29.98,SE,141,0.0,0.0,92,0.00,,FEW021,0.00,0.00,VWS V14.01,2013-08-14 09:56:00,
2013-08-14 06:01:00,76.8,74.3,29.97,SE,141,0.0,0.0,92,0.00,,FEW021,0.00,0.00,VWS V14.01,2013-08-14 10:01:00,
2013-08-14 06:06:00,76.9,74.4,29.97,SE,141,0.0,0.0,92,0.00,,FEW021,0.00,0.00,VWS V14.01,2013-08-14 10:06:00,
2013-08-14 06:11:00,76.8,74.3,29.98,SE,141,0.0,0.0,92,0.00,,FEW021,0.00,0.00,VWS V14.01,2013-08-14 10:11:00,
2013-08-14 06:16:00,76.8,74.0,29.98,SE,141,0.0,0.0,91,0.00,,FEW021,0.00,0.00,VWS V14.01,2013-08-14 10:16:00,
2013-08-14 06:21:00,76.9,74.4,29.98,SE,141,0.0,0.0,92,0.00,,FEW021,0.00,0.00,VWS V14.01,2013-08-14 10:21:00,
2013-08-14 06:26:00,77.0,74.5,29.98,SE,141,0.0,0.0,92,0.00,,FEW021,0.00,0.00,VWS V14.01,2013-08-14 10:26:00,
2013-08-14 06:31:00,77.0,74.2,29.98,SE,141,0.0,0.0,91,0.00,,FEW021,0.00,0.00,VWS V14.01,2013-08-14 10:31:00,
2013-08-14 06:36:00,77.0,74.2,29.98,SE,141,0.0,0.0,91,0.00,,FEW021,0.00,0.00,VWS V14.01,2013-08-14 10:36:00,
2013-08-14 06:41:00,77.1,74.6,29.98,SE,141,0.0,0.0,92,0.00,,FEW021,0.00,0.00,VWS V14.01,2013-08-14 10:41:00,
2013-08-14 06:46:00,77.1,74.3,29.98,SE,141,0.0,0.0,91,0.00,,FEW021,0.00,0.00,VWS V14.01,2013-08-14 10:46:00,
2013-08-14 06:51:00,77.2,74.4,29.98,SE,141,0.0,0.0,91,0.00,,FEW021,0.00,0.00,VWS V14.01,2013-08-14 10:51:00,
2013-08-14 06:56:00,77.1,74.3,29.98,SE,141,0.0,0.0,91,0.00,,FEW021,0.00,5.00,VWS V14.01,2013-08-14 10:56:00,
2013-08-14 07:01:00,77.0,74.2,29.98,SE,141,0.0,0.0,91,0.00,,FEW021,0.00,9.00,VWS V14.01,2013-08-14 11:01:00,
2013-08-14 07:06:00,77.1,74.3,29.98,SE,141,0.0,1.0,91,0.00,,FEW021,0.00,11.00,VWS V14.01,2013-08-14 11:06:00,
2013-08-14 07:11:00,77.0,74.2,29.98,SE,141,0.0,0.0,91,0.00,,FEW021,0.00,14.00,VWS V14.01,2013-08-14 11:11:00,
2013-08-14 07:16:00,77.1,74.6,29.98,SE,141,0.0,0.0,92,0.00,,FEW021,0.00,16.00,VWS V14.01,2013-08-14 11:16:00,
2013-08-14 07:21:00,77.4,74.9,29.98,SE,141,0.0,1.0,92,0.00,,FEW021,0.00,19.00,VWS V14.01,2013-08-14 11:21:00,
2013-08-14 07:26:00,77.6,74.8,29.99,SE,141,0.0,0.0,91,0.00,,FEW021,0.00,21.00,VWS V14.01,2013-08-14 11:26:00,
2013-08-14 07:31:00,77.8,75.0,29.99,SE,141,0.0,0.0,91,0.00,,FEW021,0.00,23.00,VWS V14.01,2013-08-14 11:31:00,
2013-08-14 07:36:00,78.0,75.2,29.99,SE,141,0.0,2.0,91,0.00,,FEW021,0.00,25.00,VWS V14.01,2013-08-14 11:36:00,
2013-08-14 07:41:00,78.4,75.2,30.00,SE,141,2.0,2.0,90,0.00,,FEW021,0.00,26.00,VWS V14.01,2013-08-14 11:41:00,
2013-08-14 07:46:00,78.8,75.3,30.00,SSE,155,1.0,2.0,89,0.00,,FEW021,0.00,32.00,VWS V14.01,2013-08-14 11:46:00,
2013-08-14 07:51:00,79.4,75.2,30.00,SSE,157,1.0,3.0,87,0.00,,FEW021,0.00,67.00,VWS V14.01,2013-08-14 11:51:00,
2013-08-14 07:56:00,79.9,75.0,30.00,SSE,157,1.0,2.0,85,0.00,,FEW021,0.00,30.00,VWS V14.01,2013-08-14 11:56:00,
2013-08-14 08:01:00,80.4,75.1,30.00,SSE,157,1.0,2.0,84,0.00,,FEW021,0.00,67.00,VWS V14.01,2013-08-14 12:01:00,
2013-08-14 08:06:00,80.8,75.2,30.00,SSE,157,0.0,1.0,83,0.00,,FEW021,0.00,33.00,VWS V14.01,2013-08-14 12:06:00,
2013-08-14 08:11:00,81.2,75.2,29.99,SSE,157,0.0,1.0,82,0.00,,FEW021,0.00,39.00,VWS V14.01,2013-08-14 12:11:00,
2013-08-14 08:16:00,81.6,75.2,29.99,South,169,1.0,2.0,81,0.00,,FEW021,0.00,35.00,VWS V14.01,2013-08-14 12:16:00,
2013-08-14 08:21:00,81.9,75.1,29.99,SSW,213,2.0,4.0,80,0.00,,FEW021,0.00,49.00,VWS V14.01,2013-08-14 12:21:00,
2013-08-14 08:26:00,82.3,75.5,29.99,SW,222,2.0,3.0,80,0.00,,FEW021,0.00,56.00,VWS V14.01,2013-08-14 12:26:00,
2013-08-14 08:31:00,82.5,75.3,29.99,South,175,3.0,4.0,79,0.00,,FEW021,0.00,39.00,VWS V14.01,2013-08-14 12:31:00,
2013-08-14 08:36:00,82.8,75.2,29.99,South,171,2.0,4.0,78,0.00,,FEW021,0.00,40.00,VWS V14.01,2013-08-14 12:36:00,
2013-08-14 08:41:00,83.0,75.4,29.99,SSE,155,1.0,4.0,78,0.00,,FEW021,0.00,44.00,VWS V14.01,2013-08-14 12:41:00,
2013-08-14 08:46:00,83.2,75.6,29.99,South,185,2.0,3.0,78,0.00,,FEW021,0.00,49.00,VWS V14.01,2013-08-14 12:46:00,
2013-08-14 08:51:00,83.4,75.4,29.99,SW,221,5.0,6.0,77,0.00,,FEW021,0.00,76.00,VWS V14.01,2013-08-14 12:51:00,
2013-08-14 08:56:00,83.8,75.8,29.99,SSE,164,4.0,4.0,77,0.00,,FEW021,0.00,88.00,VWS V14.01,2013-08-14 12:56:00,
2013-08-14 09:01:00,84.1,75.7,29.99,SSE,161,2.0,3.0,76,0.00,,FEW021,0.00,102.00,VWS V14.01,2013-08-14 13:01:00,
2013-08-14 09:06:00,84.2,75.4,29.99,South,169,1.0,4.0,75,0.00,,FEW021,0.00,125.00,VWS V14.01,2013-08-14 13:06:00,
2013-08-14 09:11:00,84.3,75.1,29.99,ESE,117,3.0,6.0,74,0.00,,FEW021,0.00,427.00,VWS V14.01,2013-08-14 13:11:00,
2013-08-14 09:16:00,84.7,75.1,29.99,SE,140,3.0,7.0,73,0.00,,FEW021,0.00,436.00,VWS V14.01,2013-08-14 13:16:00,
2013-08-14 09:21:00,84.9,74.4,29.99,SSE,166,4.0,6.0,71,0.00,,FEW021,0.00,482.00,VWS V14.01,2013-08-14 13:21:00,
2013-08-14 09:26:00,84.9,74.9,29.99,SE,131,2.0,4.0,72,0.00,,FEW021,0.00,504.00,VWS V14.01,2013-08-14 13:26:00,
2013-08-14 09:31:00,85.3,75.7,29.99,SSE,152,5.0,6.0,73,0.00,,FEW021,0.00,522.00,VWS V14.01,2013-08-14 13:31:00,
2013-08-14 09:36:00,85.5,75.0,29.99,SSE,155,3.0,5.0,71,0.00,,FEW021,0.00,111.00,VWS V14.01,2013-08-14 13:36:00,
2013-08-14 09:41:00,85.3,75.2,29.99,SSE,162,1.0,5.0,72,0.00,,FEW021,0.00,113.00,VWS V14.01,2013-08-14 13:41:00,
2013-08-14 09:46:00,85.0,75.0,29.99,SSE,157,2.0,4.0,72,0.00,,FEW021,0.00,109.00,VWS V14.01,2013-08-14 13:46:00,
2013-08-14 09:51:00,84.7,75.5,29.99,South,184,1.0,3.0,74,0.00,,FEW021,0.00,158.00,VWS V14.01,2013-08-14 13:51:00,
2013-08-14 09:56:00,85.4,75.8,29.99,South,188,3.0,4.0,73,0.00,,FEW021,0.00,130.00,VWS V14.01,2013-08-14 13:56:00,
2013-08-14 10:01:00,85.3,75.2,29.99,SSE,160,2.0,3.0,72,0.00,,FEW021,0.00,120.00,VWS V14.01,2013-08-14 14:01:00,
2013-08-14 10:06:00,85.5,75.4,30.00,South,186,3.0,3.0,72,0.00,,FEW021,0.00,652.00,VWS V14.01,2013-08-14 14:06:00,
2013-08-14 10:11:00,86.6,75.2,30.00,SE,139,2.0,4.0,69,0.00,,FEW021,0.00,664.00,VWS V14.01,2013-08-14 14:11:00,
2013-08-14 10:16:00,87.7,74.5,30.00,South,176,3.0,6.0,65,0.00,,FEW021,0.00,654.00,VWS V14.01,2013-08-14 14:16:00,
2013-08-14 10:21:00,87.9,75.1,30.00,SE,130,2.0,4.0,66,0.00,,FEW021,0.00,496.00,VWS V14.01,2013-08-14 14:21:00,
2013-08-14 10:26:00,88.1,74.4,30.00,South,184,4.0,4.0,64,0.00,,FEW021,0.00,677.00,VWS V14.01,2013-08-14 14:26:00,
2013-08-14 10:31:00,88.4,75.6,30.00,South,178,4.0,5.0,66,0.00,,FEW021,0.00,738.00,VWS V14.01,2013-08-14 14:31:00,
2013-08-14 10:36:00,88.5,75.7,30.00,WSW,241,2.0,6.0,66,0.00,,FEW021,0.00,123.00,VWS V14.01,2013-08-14 14:36:00,
2013-08-14 10:41:00,87.8,75.0,30.00,WSW,249,4.0,4.0,66,0.00,,FEW021,0.00,186.00,VWS V14.01,2013-08-14 14:41:00,
2013-08-14 10:46:00,87.5,76.1,30.00,West,271,4.0,6.0,69,0.00,,FEW021,0.00,819.00,VWS V14.01,2013-08-14 14:46:00,
2013-08-14 10:51:00,88.6,74.9,30.00,East,94,2.0,6.0,64,0.00,,FEW021,0.00,807.00,VWS V14.01,2013-08-14 14:51:00,
2013-08-14 10:56:00,88.9,74.2,30.00,ESE,111,3.0,7.0,62,0.00,,FEW021,0.00,780.00,VWS V14.01,2013-08-14 14:56:00,
2013-08-14 11:01:00,88.8,75.1,30.00,SW,225,2.0,6.0,64,0.00,,FEW021,0.00,844.00,VWS V14.01,2013-08-14 15:01:00,
2013-08-14 11:06:00,89.2,75.4,30.00,NE,38,2.0,5.0,64,0.00,,FEW021,0.00,805.00,VWS V14.01,2013-08-14 15:06:00,
2013-08-14 11:11:00,89.7,75.4,30.00,East,87,6.0,7.0,63,0.00,,FEW021,0.00,809.00,VWS V14.01,2013-08-14 15:11:00,
2013-08-14 11:16:00,90.1,75.8,30.00,East,97,5.0,7.0,63,0.00,,FEW021,0.00,879.00,VWS V14.01,2013-08-14 15:16:00,
2013-08-14 11:21:00,90.1,75.3,30.00,South,171,4.0,7.0,62,0.00,,FEW021,0.00,905.00,VWS V14.01,2013-08-14 15:21:00,
2013-08-14 11:26:00,89.6,74.9,30.00,SSE,159,4.0,8.0,62,0.00,,FEW021,0.00,197.00,VWS V14.01,2013-08-14 15:26:00,
2013-08-14 11:31:00,89.6,75.3,30.00,SE,135,3.0,10.0,63,0.00,,FEW021,0.00,935.00,VWS V14.01,2013-08-14 15:31:00,
2013-08-14 11:36:00,90.1,74.8,30.00,ESE,123,3.0,6.0,61,0.00,,FEW021,0.00,1021.00,VWS V14.01,2013-08-14 15:36:00,
2013-08-14 11:41:00,90.2,74.9,30.01,SSE,158,5.0,6.0,61,0.00,,FEW021,0.00,933.00,VWS V14.01,2013-08-14 15:41:00,
2013-08-14 11:46:00,91.0,75.2,30.01,SE,131,3.0,12.0,60,0.00,,FEW021,0.00,907.00,VWS V14.01,2013-08-14 15:46:00,
2013-08-14 11:51:00,90.8,75.5,30.01,SSE,155,5.0,10.0,61,0.00,,FEW021,0.00,912.00,VWS V14.01,2013-08-14 15:51:00,
2013-08-14 11:56:00,90.4,75.6,30.01,NE,35,4.0,9.0,62,0.00,,FEW021,0.00,939.00,VWS V14.01,2013-08-14 15:56:00,
2013-08-14 12:01:00,90.5,75.2,30.01,East,87,6.0,9.0,61,0.00,,FEW021,0.00,937.00,VWS V14.01,2013-08-14 16:01:00,
2013-08-14 12:06:00,90.3,75.0,30.01,East,84,3.0,7.0,61,0.00,,FEW021,0.00,932.00,VWS V14.01,2013-08-14 16:06:00,
2013-08-14 12:11:00,90.6,75.3,30.01,ENE,63,3.0,8.0,61,0.00,,FEW021,0.00,930.00,VWS V14.01,2013-08-14 16:11:00,
2013-08-14 12:16:00,91.4,76.1,30.01,East,83,10.0,11.0,61,0.00,,FEW021,0.00,963.00,VWS V14.01,2013-08-14 16:16:00,
2013-08-14 12:21:00,91.0,75.2,30.01,SSE,159,4.0,9.0,60,0.00,,FEW021,0.00,949.00,VWS V14.01,2013-08-14 16:21:00,
2013-08-14 12:26:00,91.1,75.3,30.01,SSW,211,5.0,8.0,60,0.00,,FEW021,0.00,1009.00,VWS V14.01,2013-08-14 16:26:00,
2013-08-14 12:31:00,90.6,75.3,30.01,ENE,65,4.0,7.0,61,0.00,,FEW021,0.00,255.00,VWS V14.01,2013-08-14 16:31:00,
2013-08-14 12:36:00,90.3,75.0,30.01,ESE,122,2.0,9.0,61,0.00,,FEW021,0.00,1016.00,VWS V14.01,2013-08-14 16:36:00,
2013-08-14 12:41:00,90.2,76.4,30.01,ESE,113,3.0,10.0,64,0.00,,FEW021,0.00,1014.00,VWS V14.01,2013-08-14 16:41:00,
2013-08-14 12:46:00,90.1,75.3,30.01,SSE,167,4.0,8.0,62,0.00,,FEW021,0.00,278.00,VWS V14.01,2013-08-14 16:46:00,
2013-08-14 12:51:00,89.4,74.7,30.00,ESE,115,2.0,9.0,62,0.00,,FEW021,0.00,244.00,VWS V14.01,2013-08-14 16:51:00,
2013-08-14 12:56:00,90.1,75.8,30.00,ESE,112,5.0,10.0,63,0.00,,FEW021,0.00,979.00,VWS V14.01,2013-08-14 16:56:00,
2013-08-14 13:01:00,90.6,77.2,30.01,SSW,199,2.0,9.0,65,0.00,,FEW021,0.00,976.00,VWS V14.01,2013-08-14 17:01:00,
2013-08-14 13:06:00,90.7,75.9,30.00,SE,135,7.0,11.0,62,0.00,,FEW021,0.00,967.00,VWS V14.01,2013-08-14 17:06:00,
2013-08-14 13:11:00,90.8,74.5,30.00,ESE,111,3.0,9.0,59,0.00,,FEW021,0.00,976.00,VWS V14.01,2013-08-14 17:11:00,
2013-08-14 13:16:00,91.0,75.2,30.00,SE,132,2.0,9.0,60,0.00,,FEW021,0.00,976.00,VWS V14.01,2013-08-14 17:16:00,
2013-08-14 13:21:00,90.9,75.6,30.00,SE,144,5.0,11.0,61,0.00,,FEW021,0.00,977.00,VWS V14.01,2013-08-14 17:21:00,
2013-08-14 13:26:00,91.2,75.4,29.99,SSE,153,5.0,9.0,60,0.00,,FEW021,0.00,1021.00,VWS V14.01,2013-08-14 17:26:00,
2013-08-14 13:31:00,91.3,76.0,29.99,SSE,149,5.0,8.0,61,0.00,,FEW021,0.00,1137.00,VWS V14.01,2013-08-14 17:31:00,
2013-08-14 13:36:00,91.2,75.4,29.99,ESE,120,4.0,11.0,60,0.00,,FEW021,0.00,988.00,VWS V14.01,2013-08-14 17:36:00,
2013-08-14 13:41:00,91.1,75.3,29.99,SSE,157,10.0,16.0,60,0.00,,FEW021,0.00,1000.00,VWS V14.01,2013-08-14 17:41:00,
2013-08-14 13:46:00,91.2,74.9,29.99,SSE,161,5.0,9.0,59,0.00,,FEW021,0.00,1002.00,VWS V14.01,2013-08-14 17:46:00,
2013-08-14 13:52:00,91.4,75.1,29.99,SE,133,6.0,7.0,59,0.00,,FEW021,0.00,991.00,VWS V14.01,2013-08-14 17:52:00,
2013-08-14 13:57:00,91.2,74.4,29.99,ENE,68,5.0,10.0,58,0.00,,FEW021,0.00,981.00,VWS V14.01,2013-08-14 17:57:00,
2013-08-14 14:02:00,91.4,74.6,29.99,NE,47,3.0,8.0,58,0.00,,FEW021,0.00,981.00,VWS V14.01,2013-08-14 18:02:00,
2013-08-14 14:07:00,91.8,74.4,29.99,SSE,149,4.0,8.0,57,0.00,,FEW021,0.00,1004.00,VWS V14.01,2013-08-14 18:07:00,
2013-08-14 14:12:00,91.7,75.8,29.99,SW,220,8.0,11.0,60,0.00,,FEW021,0.00,984.00,VWS V14.01,2013-08-14 18:12:00,
2013-08-14 14:17:00,91.8,76.4,29.99,SSE,161,4.0,10.0,61,0.00,,FEW021,0.00,1065.00,VWS V14.01,2013-08-14 18:17:00,
2013-08-14 14:23:00,91.2,75.9,29.99,ESE,119,5.0,9.0,61,0.00,,FEW021,0.00,995.00,VWS V14.01,2013-08-14 18:23:00,
2013-08-14 14:28:00,91.2,75.4,29.99,SSE,163,6.0,9.0,60,0.00,,FEW021,0.00,998.00,VWS V14.01,2013-08-14 18:28:00,
2013-08-14 14:33:00,90.8,74.5,29.99,SE,128,3.0,10.0,59,0.00,,FEW021,0.00,997.00,VWS V14.01,2013-08-14 18:33:00,
2013-08-14 14:38:00,90.5,76.2,29.99,SSE,156,4.0,7.0,63,0.00,,FEW021,0.00,956.00,VWS V14.01,2013-08-14 18:38:00,
2013-08-14 14:43:00,90.6,75.3,29.99,SE,133,4.0,13.0,61,0.00,,FEW021,0.00,967.00,VWS V14.01,2013-08-14 18:43:00,
2013-08-14 14:48:00,91.1,75.3,29.98,NE,44,3.0,8.0,60,0.00,,FEW021,0.00,990.00,VWS V14.01,2013-08-14 18:48:00,
2013-08-14 14:54:00,90.8,73.5,29.98,SSE,156,1.0,10.0,57,0.00,,FEW021,0.00,942.00,VWS V14.01,2013-08-14 18:54:00,
2013-08-14 14:59:00,91.0,76.2,29.98,SSE,161,4.0,7.0,62,0.00,,FEW021,0.00,246.00,VWS V14.01,2013-08-14 18:59:00,
2013-08-14 15:04:00,91.1,76.3,29.97,SE,124,2.0,11.0,62,0.00,,FEW021,0.00,939.00,VWS V14.01,2013-08-14 19:04:00,
2013-08-14 15:12:00,91.4,76.6,29.97,ESE,120,4.0,8.0,62,0.00,,FEW021,0.00,925.00,VWS V14.01,2013-08-14 19:12:00,
2013-08-14 15:17:00,91.8,75.9,29.97,ESE,122,5.0,9.0,60,0.00,,FEW021,0.00,907.00,VWS V14.01,2013-08-14 19:17:00,
2013-08-14 15:22:00,91.4,74.6,29.97,East,86,7.0,9.0,58,0.00,,FEW021,0.00,882.00,VWS V14.01,2013-08-14 19:22:00,
2013-08-14 15:27:00,91.6,75.8,29.97,South,178,4.0,12.0,60,0.00,,FEW021,0.00,889.00,VWS V14.01,2013-08-14 19:27:00,
2013-08-14 15:32:00,91.3,75.0,29.97,NE,46,6.0,10.0,59,0.00,,FEW021,0.00,877.00,VWS V14.01,2013-08-14 19:32:00,
2013-08-14 15:37:00,91.4,74.6,29.97,ENE,72,4.0,7.0,58,0.00,,FEW021,0.00,847.00,VWS V14.01,2013-08-14 19:37:00,
2013-08-14 15:42:00,91.3,75.0,29.97,ESE,110,1.0,9.0,59,0.00,,FEW021,0.00,831.00,VWS V14.01,2013-08-14 19:42:00,
2013-08-14 15:48:00,91.0,74.7,29.97,SSE,150,6.0,11.0,59,0.00,,FEW021,0.00,821.00,VWS V14.01,2013-08-14 19:48:00,
2013-08-14 15:53:00,90.8,74.5,29.97,SSE,165,6.0,8.0,59,0.00,,FEW021,0.00,810.00,VWS V14.01,2013-08-14 19:53:00,
2013-08-14 15:58:00,91.0,75.2,29.97,East,86,6.0,12.0,60,0.00,,FEW021,0.00,812.00,VWS V14.01,2013-08-14 19:58:00,
2013-08-14 16:03:00,90.8,75.0,29.97,NE,39,0.0,7.0,60,0.00,,FEW021,0.00,805.00,VWS V14.01,2013-08-14 20:03:00,
2013-08-14 16:08:00,91.0,76.2,29.96,East,96,2.0,12.0,62,0.00,,FEW021,0.00,786.00,VWS V14.01,2013-08-14 20:08:00,
2013-08-14 16:13:00,91.2,75.4,29.96,East,88,5.0,10.0,60,0.00,,FEW021,0.00,768.00,VWS V14.01,2013-08-14 20:13:00,
2013-08-14 16:18:00,90.7,74.4,29.96,East,92,8.0,10.0,59,0.00,,FEW021,0.00,745.00,VWS V14.01,2013-08-14 20:18:00,
2013-08-14 16:23:00,90.3,74.0,29.96,SSE,155,8.0,10.0,59,0.00,,FEW021,0.00,740.00,VWS V14.01,2013-08-14 20:23:00,
2013-08-14 16:28:00,90.6,74.8,29.96,East,79,3.0,12.0,60,0.00,,FEW021,0.00,735.00,VWS V14.01,2013-08-14 20:28:00,
2013-08-14 16:33:00,90.9,74.6,29.96,SE,132,2.0,9.0,59,0.00,,FEW021,0.00,742.00,VWS V14.01,2013-08-14 20:33:00,
2013-08-14 16:38:00,90.9,74.6,29.95,SSE,148,6.0,9.0,59,0.00,,FEW021,0.00,729.00,VWS V14.01,2013-08-14 20:38:00,
2013-08-14 16:44:00,90.8,75.0,29.96,SSE,160,9.0,11.0,60,0.00,,FEW021,0.00,617.00,VWS V14.01,2013-08-14 20:44:00,
2013-08-14 16:49:00,90.2,74.4,29.95,ESE,111,4.0,10.0,60,0.00,,FEW021,0.00,480.00,VWS V14.01,2013-08-14 20:49:00,
2013-08-14 16:54:00,89.8,74.1,29.95,SSE,159,5.0,8.0,60,0.00,,FEW021,0.00,548.00,VWS V14.01,2013-08-14 20:54:00,
2013-08-14 16:59:00,89.7,74.0,29.95,SE,135,5.0,12.0,60,0.00,,FEW021,0.00,555.00,VWS V14.01,2013-08-14 20:59:00,
2013-08-14 17:04:00,89.7,74.5,29.95,SSE,157,4.0,7.0,61,0.00,,FEW021,0.00,656.00,VWS V14.01,2013-08-14 21:04:00,
2013-08-14 17:09:00,89.8,73.1,29.95,SE,132,7.0,13.0,58,0.00,,FEW021,0.00,617.00,VWS V14.01,2013-08-14 21:09:00,
2013-08-14 17:14:00,89.7,72.4,29.95,ESE,111,3.0,9.0,57,0.00,,FEW021,0.00,582.00,VWS V14.01,2013-08-14 21:14:00,
2013-08-14 17:19:00,89.6,73.4,29.94,SSE,160,3.0,7.0,59,0.00,,FEW021,0.00,501.00,VWS V14.01,2013-08-14 21:19:00,
2013-08-14 17:24:00,89.8,74.6,29.94,East,88,6.0,7.0,61,0.00,,FEW021,0.00,557.00,VWS V14.01,2013-08-14 21:24:00,
2013-08-14 17:29:00,89.4,74.7,29.94,SSE,158,5.0,7.0,62,0.00,,FEW021,0.00,499.00,VWS V14.01,2013-08-14 21:29:00,
2013-08-14 17:34:00,89.1,75.3,29.94,SSE,151,0.0,7.0,64,0.00,,FEW021,0.00,427.00,VWS V14.01,2013-08-14 21:34:00,
2013-08-14 17:39:00,89.0,74.3,29.95,SE,131,3.0,9.0,62,0.00,,FEW021,0.00,450.00,VWS V14.01,2013-08-14 21:39:00,
2013-08-14 17:44:00,88.6,73.9,29.95,SE,133,5.0,9.0,62,0.00,,FEW021,0.00,461.00,VWS V14.01,2013-08-14 21:44:00,
2013-08-14 17:49:00,88.4,74.2,29.94,SSE,154,1.0,11.0,63,0.00,,FEW021,0.00,427.00,VWS V14.01,2013-08-14 21:49:00,
2013-08-14 17:54:00,88.3,74.1,29.94,ESE,118,4.0,7.0,63,0.00,,FEW021,0.00,376.00,VWS V14.01,2013-08-14 21:54:00,
2013-08-14 17:59:00,88.4,74.7,29.94,SSE,159,3.0,8.0,64,0.00,,FEW021,0.00,471.00,VWS V14.01,2013-08-14 21:59:00,
2013-08-14 18:04:00,88.5,74.8,29.94,ENE,74,2.0,6.0,64,0.00,,FEW021,0.00,410.00,VWS V14.01,2013-08-14 22:04:00,
2013-08-14 18:09:00,88.6,75.3,29.94,SSE,150,2.0,5.0,65,0.00,,FEW021,0.00,276.00,VWS V14.01,2013-08-14 22:09:00,
2013-08-14 18:14:00,88.1,74.4,29.95,ENE,71,1.0,5.0,64,0.00,,FEW021,0.00,322.00,VWS V14.01,2013-08-14 22:14:00,
2013-08-14 18:19:00,87.7,74.9,29.95,East,95,5.0,5.0,66,0.00,,FEW021,0.00,281.00,VWS V14.01,2013-08-14 22:19:00,
2013-08-14 18:24:00,87.5,75.2,29.95,North,360,8.0,8.0,67,0.00,,FEW021,0.00,260.00,VWS V14.01,2013-08-14 22:24:00,
2013-08-14 18:29:00,87.2,74.9,29.95,ESE,116,4.0,6.0,67,0.00,,FEW021,0.00,172.00,VWS V14.01,2013-08-14 22:29:00,
2013-08-14 18:34:00,86.8,75.0,29.95,SSE,150,4.0,9.0,68,0.00,,FEW021,0.00,83.00,VWS V14.01,2013-08-14 22:34:00,
2013-08-14 18:39:00,86.5,75.1,29.95,ESE,118,4.0,7.0,69,0.00,,FEW021,0.00,288.00,VWS V14.01,2013-08-14 22:39:00,
2013-08-14 18:44:00,86.5,75.1,29.96,SSE,159,3.0,6.0,69,0.00,,FEW021,0.00,171.00,VWS V14.01,2013-08-14 22:44:00,
2013-08-14 18:49:00,86.4,75.5,29.96,ENE,71,2.0,7.0,70,0.00,,FEW021,0.00,79.00,VWS V14.01,2013-08-14 22:49:00,
2013-08-14 18:54:00,86.1,75.6,29.96,South,173,3.0,6.0,71,0.00,,FEW021,0.00,72.00,VWS V14.01,2013-08-14 22:54:00,
2013-08-14 18:59:00,85.9,75.4,29.97,SSE,152,7.0,8.0,71,0.00,,FEW021,0.00,74.00,VWS V14.01,2013-08-14 22:59:00,
2013-08-14 19:04:00,85.7,75.6,29.97,SSE,158,2.0,8.0,72,0.00,,FEW021,0.00,46.00,VWS V14.01,2013-08-14 23:04:00,
2013-08-14 19:09:00,85.5,74.6,29.97,South,187,4.0,10.0,70,0.00,,FEW021,0.00,51.00,VWS V14.01,2013-08-14 23:09:00,
2013-08-14 19:14:00,85.3,75.2,29.97,SSE,163,5.0,8.0,72,0.00,,FEW021,0.00,74.00,VWS V14.01,2013-08-14 23:14:00,
2013-08-14 19:19:00,85.2,75.2,29.97,SE,140,3.0,5.0,72,0.00,,FEW021,0.00,74.00,VWS V14.01,2013-08-14 23:19:00,
2013-08-14 19:24:00,85.2,75.2,29.97,South,173,0.0,8.0,72,0.00,,FEW021,0.00,56.00,VWS V14.01,2013-08-14 23:24:00,
2013-08-14 19:25:00,85.2,75.2,29.97,South,173,0.0,7.0,72,0.00,,FEW021,0.00,56.00,VWS V14.01,2013-08-14 23:25:00,
2013-08-14 19:30:00,85.1,75.1,29.97,SE,140,3.0,7.0,72,0.00,,FEW021,0.00,30.00,VWS V14.01,2013-08-14 23:30:00,
2013-08-14 19:35:00,84.9,74.9,29.97,SE,134,4.0,8.0,72,0.00,,FEW021,0.00,21.00,VWS V14.01,2013-08-14 23:35:00,
2013-08-14 19:40:00,84.7,74.7,29.97,SE,128,2.0,6.0,72,0.00,,FEW021,0.00,16.00,VWS V14.01,2013-08-14 23:40:00,
2013-08-14 19:45:00,84.6,75.0,29.98,SSE,149,0.0,7.0,73,0.00,,FEW021,0.00,11.00,VWS V14.01,2013-08-14 23:45:00,
2013-08-14 19:50:00,84.5,74.9,29.98,ESE,120,0.0,3.0,73,0.00,,FEW021,0.00,5.00,VWS V14.01,2013-08-14 23:50:00,
2013-08-14 19:55:00,84.4,74.8,29.98,SE,133,5.0,10.0,73,0.00,,FEW021,0.00,0.00,VWS V14.01,2013-08-14 23:55:00,
2013-08-14 20:00:00,84.2,74.6,29.98,SSW,202,0.0,8.0,73,0.00,,FEW021,0.00,0.00,VWS V14.01,2013-08-15 00:00:00,
2013-08-14 20:05:00,84.1,74.9,29.98,South,175,0.0,4.0,74,0.00,,FEW021,0.00,0.00,VWS V14.01,2013-08-15 00:05:00,
2013-08-14 20:10:00,84.1,74.9,29.98,SSW,202,1.0,4.0,74,0.00,,FEW021,0.00,0.00,VWS V14.01,2013-08-15 00:10:00,
2013-08-14 20:15:00,84.0,74.8,29.98,SSE,164,2.0,4.0,74,0.00,,FEW021,0.00,0.00,VWS V14.01,2013-08-15 00:15:00,
2013-08-14 20:20:00,83.9,74.7,29.98,SE,140,0.0,1.0,74,0.00,,FEW021,0.00,0.00,VWS V14.01,2013-08-15 00:20:00,
2013-08-14 20:25:00,83.9,75.1,29.98,SSE,152,3.0,6.0,75,0.00,,FEW021,0.00,0.00,VWS V14.01,2013-08-15 00:25:00,
2013-08-14 20:30:00,83.9,75.1,29.99,SE,133,3.0,5.0,75,0.00,,FEW021,0.00,0.00,VWS V14.01,2013-08-15 00:30:00,
2013-08-14 20:35:00,83.9,75.1,29.99,ENE,65,0.0,3.0,75,0.00,,FEW021,0.00,0.00,VWS V14.01,2013-08-15 00:35:00,
2013-08-14 20:40:00,83.9,75.5,29.98,SE,140,4.0,4.0,76,0.00,,FEW021,0.00,0.00,VWS V14.01,2013-08-15 00:40:00,
2013-08-14 20:45:00,83.8,75.4,29.98,East,89,3.0,7.0,76,0.00,,FEW021,0.00,0.00,VWS V14.01,2013-08-15 00:45:00,
2013-08-14 20:50:00,83.8,75.4,29.99,North,360,0.0,1.0,76,0.00,,FEW021,0.00,0.00,VWS V14.01,2013-08-15 00:50:00,
2013-08-14 20:55:00,83.8,75.4,29.99,ENE,65,4.0,7.0,76,0.00,,FEW021,0.00,0.00,VWS V14.01,2013-08-15 00:55:00,
2013-08-14 21:00:00,83.7,74.9,30.00,ENE,69,2.0,6.0,75,0.00,,FEW021,0.00,0.00,VWS V14.01,2013-08-15 01:00:00,
2013-08-14 21:05:00,83.7,74.9,30.00,South,187,0.0,7.0,75,0.00,,FEW021,0.00,0.00,VWS V14.01,2013-08-15 01:05:00,
2013-08-14 21:10:00,83.8,75.0,30.00,South,178,6.0,10.0,75,0.00,,FEW021,0.00,0.00,VWS V14.01,2013-08-15 01:10:00,
2013-08-14 21:15:00,83.8,75.4,30.01,SSE,147,2.0,5.0,76,0.00,,FEW021,0.00,0.00,VWS V14.01,2013-08-15 01:15:00,
2013-08-14 21:20:00,83.7,75.3,30.01,SSE,153,2.0,4.0,76,0.00,,FEW021,0.00,0.00,VWS V14.01,2013-08-15 01:20:00,
2013-08-14 21:25:00,83.7,75.3,30.01,ESE,119,3.0,7.0,76,0.00,,FEW021,0.00,0.00,VWS V14.01,2013-08-15 01:25:00,
2013-08-14 21:30:00,83.7,75.3,30.02,East,88,10.0,10.0,76,0.00,,FEW021,0.00,0.00,VWS V14.01,2013-08-15 01:30:00,
2013-08-14 21:35:00,83.7,76.1,30.02,SE,132,10.0,10.0,78,0.00,,FEW021,0.00,0.00,VWS V14.01,2013-08-15 01:35:00,
2013-08-14 21:40:00,83.5,75.9,30.03,SSE,154,5.0,11.0,78,0.00,,FEW021,0.00,0.00,VWS V14.01,2013-08-15 01:40:00,
2013-08-14 21:45:00,83.1,75.9,30.03,East,83,6.0,9.0,79,0.00,,FEW021,0.00,0.00,VWS V14.01,2013-08-15 01:45:00,
2013-08-14 21:50:00,82.7,75.9,30.03,SSE,152,4.0,10.0,80,0.00,,FEW021,0.00,0.00,VWS V14.01,2013-08-15 01:50:00,
2013-08-14 21:55:00,82.3,75.9,30.03,SE,132,0.0,8.0,81,0.00,,FEW021,0.00,0.00,VWS V14.01,2013-08-15 01:55:00,
2013-08-14 22:00:00,81.9,75.9,30.03,East,86,2.0,6.0,82,0.00,,FEW021,0.00,0.00,VWS V14.01,2013-08-15 02:00:00,
2013-08-14 22:05:00,81.7,75.7,30.03,North,360,0.0,4.0,82,0.00,,FEW021,0.00,0.00,VWS V14.01,2013-08-15 02:05:00,
2013-08-14 22:10:00,81.5,75.5,30.03,ESE,120,2.0,7.0,82,0.00,,FEW021,0.00,0.00,VWS V14.01,2013-08-15 02:10:00,
2013-08-14 22:15:00,81.3,75.3,30.03,ESE,109,0.0,5.0,82,0.00,,FEW021,0.00,0.00,VWS V14.01,2013-08-15 02:15:00,
2013-08-14 22:20:00,81.2,75.2,30.03,SSE,152,0.0,5.0,82,0.00,,FEW021,0.00,0.00,VWS V14.01,2013-08-15 02:20:00,
2013-08-14 22:25:00,81.1,75.1,30.03,ENE,67,1.0,5.0,82,0.00,,FEW021,0.00,0.00,VWS V14.01,2013-08-15 02:25:00,
2013-08-14 22:30:00,81.0,75.0,30.03,North,360,2.0,3.0,82,0.00,,FEW021,0.00,0.00,VWS V14.01,2013-08-15 02:30:00,
2013-08-14 22:35:00,81.0,75.0,30.03,South,169,0.0,0.0,82,0.00,,FEW021,0.00,0.00,VWS V14.01,2013-08-15 02:35:00,
2013-08-14 22:40:00,81.0,75.0,30.03,ESE,109,0.0,5.0,82,0.00,,FEW021,0.00,0.00,VWS V14.01,2013-08-15 02:40:00,
2013-08-14 22:45:00,81.0,75.0,30.03,ESE,109,0.0,1.0,82,0.00,,FEW021,0.00,0.00,VWS V14.01,2013-08-15 02:45:00,
2013-08-14 22:50:00,81.0,75.3,30.03,SSE,160,1.0,3.0,83,0.00,,FEW021,0.00,0.00,VWS V14.01,2013-08-15 02:50:00,
2013-08-14 22:55:00,81.1,75.4,30.03,South,175,2.0,3.0,83,0.00,,FEW021,0.00,0.00,VWS V14.01,2013-08-15 02:55:00,
2013-08-14 23:00:00,81.2,75.6,30.04,SSE,166,3.0,4.0,83,0.00,,FEW021,0.00,0.00,VWS V14.01,2013-08-15 03:00:00,
2013-08-14 23:05:00,81.2,75.6,30.04,SSE,150,4.0,5.0,83,0.00,,FEW021,0.00,0.00,VWS V14.01,2013-08-15 03:05:00,
2013-08-14 23:10:00,81.3,75.7,30.04,South,176,4.0,4.0,83,0.00,,FEW021,0.00,0.00,VWS V14.01,2013-08-15 03:10:00,
2013-08-14 23:15:00,81.4,75.7,30.03,SSE,163,1.0,3.0,83,0.00,,FEW021,0.00,0.00,VWS V14.01,2013-08-15 03:15:00,
2013-08-14 23:20:00,81.4,75.7,30.04,SSE,159,2.0,3.0,83,0.00,,FEW021,0.00,0.00,VWS V14.01,2013-08-15 03:20:00,
2013-08-14 23:25:00,81.5,75.8,30.03,SE,137,1.0,4.0,83,0.00,,FEW021,0.00,0.00,VWS V14.01,2013-08-15 03:25:00,
2013-08-14 23:30:00,81.5,75.5,30.03,SE,132,1.0,3.0,82,0.00,,FEW021,0.00,0.00,VWS V14.01,2013-08-15 03:30:00,
2013-08-14 23:35:00,81.5,75.8,30.03,South,171,0.0,3.0,83,0.00,,FEW021,0.00,0.00,VWS V14.01,2013-08-15 03:35:00,
2013-08-14 23:40:00,81.5,75.5,30.03,SSE,159,2.0,4.0,82,0.00,,FEW021,0.00,0.00,VWS V14.01,2013-08-15 03:40:00,
2013-08-14 23:45:00,81.6,75.6,30.03,SSE,152,2.0,2.0,82,0.00,,FEW021,0.00,0.00,VWS V14.01,2013-08-15 03:45:00,
2013-08-14 23:50:00,81.6,75.9,30.03,SE,132,2.0,3.0,83,0.00,,FEW021,0.00,0.00,VWS V14.01,2013-08-15 03:50:00,
2013-08-14 23:55:00,81.6,75.9,30.03,SE,131,0.0,1.0,83,0.00,,FEW021,0.00,0.00,VWS V14.01,2013-08-15 03:55:00,